This demonstration page uses our WeatherBlox Daily Observations layout. Learn more.

Left ArrowRight Arrow

41.55636, -103.73856

Hourly Observations for December 9, 2021

Temp ( °F °C ) Dew Point ( °F °C ) Humidity (%) Winds ( mph kmh ) Pressure ( in mb ) Visibility ( mi km ) Precip ( " mm )
12:58 am 00:58 Mostly Cloudy 48 8.9 24 -4.5 39 39 WNW 26 43 29.48 998 10 16 0.00 0.00
1:58 am 01:58 Mostly Cloudy 45 7.3 24 -4.2 44 44 WNW 25 41 29.52 1000 10 16 0.00 0.00
2:58 am 02:58 Clear 44 6.6 22 -5.3 43 43 WNW 17 28 29.56 1001 10 16 0.00 0.00
3:58 am 03:58 Clear 44 6.5 22 -5.4 43 43 WNW 21 33 29.59 1002 10 16 0.00 0.00
4:58 am 04:58 Clear 42 5.7 24 -4.5 48 48 WNW 18 30 29.61 1003 10 16 0.00 0.00
5:58 am 05:58 Mostly Clear 37 2.6 23 -4.9 58 58 NNW 13 20 29.65 1004 10 16 0.00 0.00
6:58 am 06:58 Clear 33 0.4 23 -4.9 68 68 N 7 11 29.72 1006 10 16 0.00 0.00
7:58 am 07:58 Sunny 29 -1.4 22 -5.4 75 75 W 6 9 29.76 1008 10 16 0.00 0.00
8:58 am 08:58 Sunny 33 0.5 26 -3.5 75 75 S 3 6 29.75 1007 10 16 0.00 0.00
9:56 am 09:56 Mostly Sunny 37 3 24 -4.4 59 59 Calm 29.75 1007 10 16 0.00 0.00
10:56 am 10:56 Mostly Cloudy 39 3.9 22 -5.4 51 51 E 6 9 29.73 1007 10 16 0.00 0.00
11:56 am 11:56 Cloudy 39 4.1 21 -6 48 48 E 9 15 29.71 1006 10 16 0.00 0.00
1:56 pm 13:56 Mostly Cloudy 41 5.2 23 -4.8 49 49 SE 7 11 29.67 1005 10 16 0.00 0.00
2:56 pm 14:56 Cloudy 41 5 26 -3.6 54 54 Calm 29.68 1005 10 16 0.00 0.00
3:56 pm 15:56 Mostly Cloudy with Light Showers 40 4.2 28 -2.3 63 63 ESE 6 9 29.70 1006 10 16 0.00 0.00
4:56 pm 16:56 Cloudy with Light Showers 38 3.1 30 -0.9 75 75 ESE 5 7 29.72 1006 10 16 0.00 0.00
5:56 pm 17:56 Mostly Cloudy with Light Rain 34 1.1 32 0.1 93 93 ENE 5 7 29.73 1007 10 16 0.00 0.00
6:56 pm 18:56 Cloudy with Light Rain 34 1.3 32 -0.2 90 90 E 14 22 29.72 1006 10 16 0.01 0.25
7:56 pm 19:56 Cloudy 33 0.6 28 -2.5 80 80 E 18 30 29.70 1006 10 16 0.01 0.25
8:58 pm 20:58 Mostly Cloudy 33 0.3 25 -3.7 75 75 E 12 19 29.70 1006 10 16 0.00 0.00
9:58 pm 21:58 Mostly Cloudy 33 0.4 22 -5.5 65 65 ESE 14 22 29.75 1007 10 16 0.00 0.00
10:58 pm 22:58 Mostly Cloudy with Light Snow 33 0.5 21 -6 62 62 ESE 17 28 29.73 1007 10 16 0.00 0.00
11:58 pm 23:58 Mostly Cloudy 33 0.4 22 -5.8 64 64 ESE 22 35 29.70 1006 10 16 0.00 0.00

Powered by AerisWeather